Location: Bronschhofen
(47.4788°N, 9.0353°E)
Time: 18:44:05
(UTC+00:00)

Cosmos 292 Rocket - Pass Details

Date: 20 May 2022
Orbit: 673 x 692 km, 74.0° (Epoch: 05 July)

Event Time Altitude Azimuth Distance (km) Brightness Sun altitude
Exits shadow 02:59:08 - 195° (SSW) 2,819 6.4 -6.6°
Reaches altitude 10° 03:00:52 10° 194° (SSW) 2,132 5.8 -6.4°
Maximum altitude 03:05:40 75° 110° (ESE) 715 4.0 -5.8°
Drops below altitude 10° 03:10:27 10° 25° (NNE) 2,136 7.5 -5.1°
Sets 03:12:46 0° 24° (NNE) 3,052 8.3 -4.8°
